Wind_Speed
12 12 19 16 16 16 15 14 15 15 15 14 14 14 12 12 12 13 11 9 10 10 9 9 8 7 7 7 6 6 6 7 7
17 18 12 10 15 20 17 17 16 15 17 17 17 16 15 16 14 15 15 12 11 10 10 9 9 9 9 9 8 7 6 6 6
15 17 22 21 16 14 15 20 18 20 19 19 20 19 19 20 18 18 17 16 15 14 13 12 11 10 10 9 9 9 8 7 7
13 15 12 15 18 19 21 19 23 19 22 22 20 22 24 23 22 21 20 20 19 18 18 16 15 15 14 13 11 11 10 9 9
10 9 11 11 12 14 17 17 23 24 23 21 23 23 23 23 24 24 24 23 23 23 22 21 20 19 18 17 16 15 14 14 13
13 12 13 12 10 11 12 14 18 20 20 23 21 24 27 24 25 26 26 26 27 26 26 24 24 24 23 22 20 19 18 17 16
14 14 15 14 14 14 14 14 14 17 21 21 21 25 25 24 28 29 28 29 30 31 30 30 30 29 29 27 25 24 23 22 21
18 17 16 16 16 16 15 15 17 17 17 18 21 25 26 27 25 29 29 30 31 32 32 33 35 33 33 32 31 30 29 27 26
22 21 20 20 19 19 19 19 20 21 21 22 22 22 22 25 26 31 33 29 32 31 34 36 36 37 38 36 36 35 35 34 33
27 27 26 25 25 24 24 24 24 24 25 25 25 25 25 26 25 24 26 26 29 31 30 32 35 38 40 39 40 40 40 39 39
33 32 32 31 30 30 30 30 30 30 30 30 30 30 30 29 29 29 29 29 31 30 30 32 33 36 38 39 41 43 43 41 41
36 36 35 36 35 35 35 35 34 34 34 34 35 35 36 35 35 34 34 34 35 35 36 36 35 35 36 38 39 41 41 43 43
39 39 39 38 39 39 39 40 40 40 39 39 39 39 40 40 41 40 40 39 39 39 39 40 40 41 41 38 39 38 43 42 42
42 42 43 43 44 44 44 45 46 46 46 46 46 46 45 45 45 45 46 46 46 44 44 44 44 44 45 45 45 45 41 42 43
46 47 47 48 49 50 50 51 52 52 53 53 53 52 53 52 52 51 50 51 51 51 51 51 50 50 48 48 47 50 50 49 47
52 53 54 54 55 55 56 56 57 57 58 58 58 58 57 58 57 58 57 57 56 56 57 57 57 57 56 54 52 52 52 53 53
58 58 58 59 60 61 62 62 62 62 63 63 64 64 63 64 63 63 63 63 63 63 62 62 62 61 61 60 59 59 57 56 55
62 62 63 64 65 65 66 67 67 67 68 68 69 70 70 69 69 68 69 69 69 69 68 68 68 66 66 66 65 65 64 63 61
65 66 66 67 67 68 69 69 68 68 68 68 68 69 69 70 70 72 73 74 75 76 75 76 74 73 72 71 70 70 69 69 68
63 64 65 66 67 68 69 70 70 71 72 72 72 73 73 74 74 74 74 76 77 78 78 80 80 80 79 77 75 75 74 74 72
Wind_Direction
229 230 235 235 238 231 234 236 233 224 223 226 223 211 207 204 198 208 205 203 207 205 204 202 196 194 190 180 176 172 171 167 157
243 245 233 228 245 240 229 241 239 236 233 231 232 230 222 221 212 216 215 212 216 218 216 213 211 204 201 197 193 196 182 190 178
247 250 251 243 244 253 238 239 244 239 237 237 236 235 233 234 225 226 226 223 222 223 221 219 220 220 223 213 209 207 208 204 208
250 242 243 241 243 249 245 232 238 242 240 240 239 239 237 237 239 236 235 236 234 232 233 231 230 230 230 233 231 229 221 222 219
254 245 244 244 244 250 254 249 243 244 241 243 242 244 245 245 243 245 243 244 246 246 242 242 240 240 240 239 240 238 240 238 237
254 249 251 251 243 250 254 261 255 252 248 238 245 246 246 248 250 249 248 245 247 249 251 252 252 247 244 242 242 246 248 247 247
254 254 256 259 259 255 253 267 264 258 256 258 238 242 245 251 251 252 252 251 249 251 252 251 252 251 254 252 247 246 247 250 252
248 251 254 255 257 263 263 259 257 263 265 264 262 259 252 238 253 254 251 251 252 252 253 254 255 256 254 253 257 253 251 250 252
250 249 249 252 257 259 260 263 263 261 262 264 264 264 261 258 251 256 254 256 253 253 253 254 256 258 259 259 255 256 257 257 257
251 252 253 252 252 254 257 258 260 262 263 264 264 264 263 261 259 256 254 254 260 260 262 262 260 258 259 259 260 259 257 258 258
252 254 256 257 257 257 256 257 258 259 260 261 262 264 263 264 265 264 260 256 255 253 255 263 270 268 264 260 261 261 262 261 260
256 256 258 259 261 262 264 264 262 261 261 261 261 261 263 263 262 261 261 261 260 257 254 252 255 259 262 265 264 264 264 262 262
257 258 259 259 260 262 264 265 266 266 266 264 263 262 263 263 263 263 262 260 260 261 261 259 257 256 258 257 260 266 264 263 264
257 257 259 261 263 263 264 265 266 267 267 267 266 266 264 263 262 262 262 262 261 260 260 260 260 259 259 258 257 259 260 261 261
260 261 261 262 262 262 264 264 264 265 265 265 265 264 265 265 266 264 262 261 261 261 261 260 259 259 258 258 258 259 259 258 259
261 261 261 262 263 264 264 264 265 264 265 265 264 264 265 263 263 263 264 264 263 261 260 260 260 260 259 258 257 257 257 258 258
261 262 263 263 263 263 263 263 263 264 265 266 266 266 265 265 265 265 264 263 263 263 262 261 260 260 260 259 258 258 257 257 257
263 264 264 264 264 265 265 266 265 265 264 264 264 264 265 265 265 265 265 265 265 264 264 263 263 262 260 259 258 258 258 257 257
264 265 267 267 267 268 268 268 268 268 268 268 267 267 266 265 265 266 265 265 265 265 264 264 263 263 262 262 261 259 257 257 257
266 267 268 269 269 270 271 271 270 270 270 269 268 267 267 267 267 266 265 267 267 266 265 265 264 263 262 261 260 260 259 258 256
Height
5833 5835 5837 5839 5840 5841 5843 5845 5846 5848 5850 5851 5852 5853 5855 5855 5857 5857 5858 5860 5861 5862 5863 5864 5864 5865 5866 5867 5867 5867 5868 5868 5868
5832 5833 5835 5836 5837 5839 5839 5842 5844 5846 5848 5849 5851 5853 5853 5853 5857 5857 5857 5858 5860 5861 5862 5863 5864 5864 5865 5866 5866 5866 5867 5868 5869
5829 5830 5832 5833 5834 5836 5837 5839 5841 5843 5845 5846 5848 5850 5851 5852 5854 5855 5856 5857 5858 5859 5860 5861 5863 5864 5865 5865 5866 5866 5866 5867 5868
5827 5826 5828 5829 5831 5832 5835 5834 5837 5839 5841 5843 5845 5847 5847 5850 5852 5854 5855 5856 5856 5857 5859 5860 5861 5862 5863 5864 5865 5866 5866 5866 5867
5823 5824 5826 5827 5827 5829 5831 5831 5833 5835 5836 5838 5841 5842 5845 5847 5848 5850 5853 5854 5854 5855 5856 5858 5859 5860 5861 5862 5863 5864 5865 5865 5865
5821 5822 5824 5825 5825 5827 5827 5827 5829 5831 5831 5833 5835 5838 5839 5843 5843 5845 5847 5850 5851 5852 5853 5856 5856 5857 5858 5858 5860 5861 5863 5863 5864
5817 5819 5821 5821 5823 5824 5824 5824 5825 5827 5828 5829 5830 5833 5835 5839 5836 5839 5841 5843 5844 5847 5848 5850 5850 5853 5854 5856 5857 5857 5858 5859 5860
5814 5815 5816 5818 5819 5819 5820 5821 5823 5824 5824 5825 5826 5828 5829 5833 5833 5833 5835 5837 5838 5841 5842 5843 5844 5848 5848 5850 5852 5853 5854 5854 5856
5808 5810 5811 5813 5813 5815 5816 5817 5819 5820 5821 5821 5822 5823 5824 5826 5828 5829 5831 5831 5833 5835 5835 5836 5839 5840 5841 5844 5845 5847 5849 5850 5851
5802 5804 5805 5806 5808 5809 5811 5812 5814 5814 5815 5817 5817 5818 5819 5820 5822 5824 5824 5826 5827 5829 5829 5830 5832 5832 5834 5836 5838 5839 5841 5843 5845
5796 5797 5799 5800 5801 5803 5804 5806 5807 5808 5809 5810 5811 5812 5813 5814 5815 5817 5818 5819 5820 5821 5822 5824 5826 5826 5826 5828 5830 5830 5833 5836 5837
5790 5791 5792 5793 5794 5795 5796 5798 5800 5801 5802 5803 5804 5805 5806 5808 5809 5810 5810 5812 5813 5814 5815 5816 5817 5818 5817 5821 5823 5823 5825 5827 5827
5781 5782 5784 5785 5786 5787 5788 5789 5790 5791 5793 5794 5796 5797 5798 5800 5801 5802 5802 5804 5804 5806 5806 5808 5809 5810 5810 5812 5815 5815 5816 5817 5819
5771 5773 5774 5775 5776 5777 5778 5779 5780 5781 5782 5783 5785 5786 5787 5789 5791 5793 5793 5794 5795 5796 5797 5797 5799 5801 5802 5804 5806 5806 5806 5808 5809
5760 5762 5763 5764 5765 5766 5767 5768 5768 5769 5770 5771 5772 5774 5775 5776 5777 5779 5781 5783 5784 5785 5786 5786 5788 5789 5791 5793 5796 5796 5797 5798 5799
5749 5749 5750 5751 5752 5753 5754 5755 5755 5756 5757 5758 5759 5760 5762 5762 5764 5765 5767 5768 5770 5772 5772 5774 5775 5776 5777 5780 5784 5783 5785 5786 5789
5735 5736 5737 5738 5738 5739 5739 5740 5742 5742 5743 5744 5744 5745 5748 5747 5749 5751 5751 5754 5754 5756 5758 5759 5760 5762 5764 5767 5769 5769 5771 5773 5776
5721 5722 5722 5723 5723 5724 5724 5725 5726 5728 5728 5729 5729 5729 5730 5732 5733 5736 5734 5738 5737 5739 5741 5742 5744 5747 5748 5751 5753 5754 5756 5758 5761
5705 5706 5707 5707 5708 5708 5708 5709 5709 5710 5711 5712 5712 5712 5713 5715 5717 5717 5718 5720 5721 5721 5725 5722 5725 5729 5730 5734 5737 5736 5740 5742 5744
5689 5689 5689 5690 5690 5690 5691 5691 5691 5692 5692 5693 5693 5694 5694 5694 5697 5700 5701 5701 5702 5704 5706 5704 5705 5708 5710 5713 5717 5718 5721 5723 5726